Location: Praha
(50.0830°N, 14.4670°E)
Time: 13:53:12
(UTC+02:00)

ISS - Pass Details

Date: 16 September 2021
Orbit: 419 x 423 km, 51.6° (Epoch: 21 September)

Event Time Altitude Azimuth Distance (km) Brightness Sun altitude
Rises 20:48:30 0° 213° (SSW) 2,354 0.2 -15.6°
Reaches altitude 10° 20:50:50 10° 199° (SSW) 1,494 -1.0 -15.9°
Enters shadow 20:52:23 19° 176° (S) 1,053 -2.0 -16.2°
